Location: Berlin
(52.5200°N, 13.4050°E)
Time: 13:19:46
(UTC+01:00)

ISS - Visible Passes

Search period start: 03 December 2022 00:00
Search period end: 13 December 2022 00:00
Orbit: 414 x 420 km, 51.6° (Epoch: 03 December)

Date Brightness Start Highest point End Pass type
(mag) Time Alt. Az. Time Alt. Az. Time Alt. Az.
03 Dec -2.2 17:52:14 10° W 17:55:18 33° SSW 17:57:24 16° SSE visible
04 Dec -2.6 17:04:04 10° W 17:07:16 43° SSW 17:10:28 10° SE visible
04 Dec -0.8 18:41:50 10° WSW 18:43:25 13° SW 18:44:44 11° SSW visible
05 Dec -1.0 17:53:06 10° W 17:55:29 18° SW 17:57:52 10° S visible
06 Dec -1.4 17:04:40 10° W 17:07:29 25° SSW 17:10:18 10° SSE visible
08 Dec -0.5 17:05:47 10° WSW 17:07:28 13° SW 17:09:10 10° S visible
